User: anonymous   Login
Location: Unspecified
(0.0000°N, 0.0000°E)
Time: 03:23:44
(UTC+00:00)
Language:

Orbcomm G2 (FM04) - Orbit

View from above orbital plane
View from above orbital plane
View from above satellite
View from above satellite

Ground track
Ground track

The orbit data is extracted from the following two-line orbital elements,

1 25159U 98007C   19054.07735987  .00000071  00000-0  78270-4 0  9997
2 25159 107.9981 103.9012 0046470 288.7840  70.8259 14.29627593 94454
Epoch (UTC): 23 February 2019 01:51:23
Eccentricity: 0.0046470
inclination: 107.9981°
perigee height: 759 km
apogee height: 826 km
right ascension of ascending node: 103.9012°
argument of perigee: 288.7840°
revolutions per day: 14.29627593
mean anomaly at epoch: 70.8259°
orbit number at epoch: 9445

The dashed part of the orbit path shows where the satellite is in the earth's shadow,  

DLR